Location: Le Rocchette
(44.3500°N, 7.8333°E)
Time: 18:07:29
(UTC+00:00)

Cosmos 2061 Rocket - Pass Details

Date: 17 November 2019
Orbit: 965 x 1013 km, 82.9° (Epoch: 14 December)

Event Time Altitude Azimuth Distance (km) Brightness Sun altitude
Rises 05:08:49 0° 196° (SSW) 3,677 7.0 -13.9°
Reaches altitude 10° 05:11:22 10° 199° (SSW) 2,726 6.3 -13.5°
Maximum altitude 05:17:33 64° 281° (W) 1,076 4.0 -12.4°
Drops below altitude 10° 05:23:44 10° 2° (N) 2,720 6.2 -11.3°
Sets 05:26:16 0° 6° (N) 3,668 6.9 -10.9°
